{"data":{"norad_id":41853,"epoch":"2026-05-25T03:23:54.818880Z","epoch_age_seconds":58722,"freshness":"FRESH","line1":"1 41853U 16067F   26145.14160670  .00006988  00000+0  28942-3 0  9992","line2":"2 41853  98.0591  10.8203 0006426 130.7134 229.4661 15.24262693522555","mean_motion":15.24262693,"eccentricity":0.0006426,"inclination_deg":98.0591,"raan_deg":10.8203,"arg_perigee_deg":130.7134,"mean_anomaly_deg":229.4661,"bstar":0.00028942,"rev_number":52255,"period_min":94.471904784722,"perigee_km":488.5849243983,"apogee_km":497.41571007842,"semimajor_km":6871.1373172384,"source":"CELESTRAK","updated_at":"2026-05-25T13:38:25.529153Z"}}